Time,TemperatureF,DewpointF,PressureIn,WindDirection,WindDirectionDegrees,WindSpeedMPH,WindSpeedGustMPH,Humidity,HourlyPrecipIn,Conditions,Clouds,dailyrainin,SoftwareType,DateUTC
2013-05-28 00:05:00,74.8,71.3,29.91,SE,143,1.0,1.0,89,0.00,,,0.00,Wunderground v.1.15,2013-05-28 05:05:00,
2013-05-28 00:14:00,74.8,71.3,29.92,SE,134,1.0,4.0,89,0.00,,,0.00,Wunderground v.1.15,2013-05-28 05:14:00,
2013-05-28 00:20:00,74.7,71.2,29.92,East,90,1.0,1.0,89,0.00,,,0.00,Wunderground v.1.15,2013-05-28 05:20:00,
2013-05-28 00:30:00,74.6,71.1,29.91,East,96,1.0,2.0,89,0.00,,,0.00,Wunderground v.1.15,2013-05-28 05:30:00,
2013-05-28 00:40:00,74.4,71.3,29.91,SE,141,2.0,2.0,90,0.00,,,0.00,Wunderground v.1.15,2013-05-28 05:40:00,
2013-05-28 00:50:00,74.3,71.2,29.91,East,96,1.0,1.0,90,0.00,,,0.00,Wunderground v.1.15,2013-05-28 05:50:00,
2013-05-28 00:55:00,74.3,71.2,29.91,SE,129,1.0,1.0,90,0.00,,,0.00,Wunderground v.1.15,2013-05-28 05:55:00,
2013-05-28 01:05:00,74.2,71.1,29.91,ESE,117,1.0,1.0,90,0.00,,,0.00,Wunderground v.1.15,2013-05-28 06:05:00,
2013-05-28 01:15:00,74.1,71.0,29.90,East,100,1.0,2.0,90,0.00,,,0.00,Wunderground v.1.15,2013-05-28 06:15:00,
2013-05-28 01:25:00,74.1,71.0,29.90,East,82,2.0,2.0,90,0.00,,,0.00,Wunderground v.1.15,2013-05-28 06:25:00,
2013-05-28 01:30:00,74.0,70.9,29.89,ESE,122,1.0,3.0,90,0.00,,,0.00,Wunderground v.1.15,2013-05-28 06:30:00,
2013-05-28 01:40:00,74.0,70.9,29.89,East,92,1.0,3.0,90,0.00,,,0.00,Wunderground v.1.15,2013-05-28 06:40:00,
2013-05-28 01:45:00,74.0,71.2,29.89,ESE,113,2.0,3.0,91,0.00,,,0.00,Wunderground v.1.15,2013-05-28 06:45:00,
2013-05-28 01:55:00,73.9,71.1,29.89,SW,229,1.0,2.0,91,0.00,,,0.00,Wunderground v.1.15,2013-05-28 06:55:00,
2013-05-28 02:05:00,73.8,71.0,29.89,ESE,110,1.0,2.0,91,0.00,,,0.00,Wunderground v.1.15,2013-05-28 07:05:00,
2013-05-28 02:15:00,73.8,71.0,29.88,East,86,1.0,2.0,91,0.00,,,0.00,Wunderground v.1.15,2013-05-28 07:15:00,
2013-05-28 02:25:00,73.7,70.9,29.88,East,94,1.0,4.0,91,0.00,,,0.00,Wunderground v.1.15,2013-05-28 07:25:00,
2013-05-28 02:35:00,73.6,70.8,29.87,SE,130,1.0,3.0,91,0.00,,,0.00,Wunderground v.1.15,2013-05-28 07:35:00,
2013-05-28 02:45:00,73.5,71.0,29.87,ESE,120,1.0,1.0,92,0.00,,,0.00,Wunderground v.1.15,2013-05-28 07:45:00,
2013-05-28 02:55:00,73.4,70.9,29.87,ESE,119,1.0,2.0,92,0.00,,,0.00,Wunderground v.1.15,2013-05-28 07:55:00,
2013-05-28 03:05:00,73.4,70.9,29.86,West,264,1.0,1.0,92,0.00,,,0.00,Wunderground v.1.15,2013-05-28 08:05:00,
2013-05-28 03:15:00,73.4,70.9,29.86,SE,146,1.0,1.0,92,0.00,,,0.00,Wunderground v.1.15,2013-05-28 08:15:00,
2013-05-28 03:24:00,73.5,71.0,29.86,East,100,1.0,1.0,92,0.00,,,0.00,Wunderground v.1.15,2013-05-28 08:24:00,
2013-05-28 03:30:00,73.5,71.0,29.86,WNW,293,1.0,1.0,92,0.00,,,0.00,Wunderground v.1.15,2013-05-28 08:30:00,
2013-05-28 03:40:00,73.5,71.0,29.86,SSE,148,1.0,2.0,92,0.00,,,0.00,Wunderground v.1.15,2013-05-28 08:40:00,
2013-05-28 03:50:00,73.6,71.1,29.86,NE,40,1.0,1.0,92,0.00,,,0.00,Wunderground v.1.15,2013-05-28 08:50:00,
2013-05-28 04:00:00,73.6,70.8,29.86,SE,132,1.0,1.0,91,0.00,,,0.00,Wunderground v.1.15,2013-05-28 09:00:00,
2013-05-28 04:10:00,73.5,70.7,29.86,SSE,165,1.0,1.0,91,0.00,,,0.00,Wunderground v.1.15,2013-05-28 09:10:00,
2013-05-28 04:19:00,73.6,70.8,29.86,ESE,109,1.0,1.0,91,0.00,,,0.00,Wunderground v.1.15,2013-05-28 09:19:00,
2013-05-28 04:25:00,73.6,71.1,29.86,SW,228,1.0,1.0,92,0.00,,,0.00,Wunderground v.1.15,2013-05-28 09:25:00,
2013-05-28 04:35:00,73.6,70.8,29.86,ESE,104,1.0,1.0,91,0.00,,,0.00,Wunderground v.1.15,2013-05-28 09:35:00,
2013-05-28 04:45:00,73.7,70.9,29.85,NE,40,1.0,2.0,91,0.00,,,0.00,Wunderground v.1.15,2013-05-28 09:45:00,
2013-05-28 04:55:00,73.7,70.9,29.85,SW,219,1.0,3.0,91,0.00,,,0.00,Wunderground v.1.15,2013-05-28 09:55:00,
2013-05-28 05:05:00,73.6,70.8,29.86,SSW,208,1.0,2.0,91,0.00,,,0.00,Wunderground v.1.15,2013-05-28 10:05:00,
2013-05-28 05:14:00,73.6,70.8,29.85,ENE,78,1.0,2.0,91,0.00,,,0.00,Wunderground v.1.15,2013-05-28 10:14:00,
2013-05-28 05:20:00,73.6,70.8,29.85,ENE,67,1.0,1.0,91,0.00,,,0.00,Wunderground v.1.15,2013-05-28 10:20:00,
2013-05-28 05:30:00,73.5,70.7,29.86,ESE,117,1.0,1.0,91,0.00,,,0.00,Wunderground v.1.15,2013-05-28 10:30:00,
2013-05-28 05:40:00,73.4,70.9,29.86,WSW,250,1.0,1.0,92,0.00,,,0.00,Wunderground v.1.15,2013-05-28 10:40:00,
2013-05-28 05:50:00,73.4,70.9,29.86,East,98,1.0,1.0,92,0.00,,,0.00,Wunderground v.1.15,2013-05-28 10:50:00,
2013-05-28 05:55:00,73.4,70.9,29.86,SSE,148,1.0,1.0,92,0.00,,,0.00,Wunderground v.1.15,2013-05-28 10:55:00,
2013-05-28 06:05:00,73.5,71.0,29.86,NNE,32,1.0,1.0,92,0.00,,,0.00,Wunderground v.1.15,2013-05-28 11:05:00,
2013-05-28 06:10:00,73.5,71.0,29.86,NNE,33,0.0,0.0,92,0.00,,,0.00,Wunderground v.1.15,2013-05-28 11:10:00,
2013-05-28 06:20:00,73.7,70.9,29.86,ESE,107,1.0,1.0,91,0.00,,,0.00,Wunderground v.1.15,2013-05-28 11:20:00,
2013-05-28 06:30:00,73.8,71.0,29.86,SE,145,1.0,1.0,91,0.00,,,0.00,Wunderground v.1.15,2013-05-28 11:30:00,
2013-05-28 06:40:00,74.0,71.2,29.86,ESE,113,1.0,1.0,91,0.00,,,0.00,Wunderground v.1.15,2013-05-28 11:40:00,
2013-05-28 06:50:00,74.0,71.2,29.86,East,98,1.0,2.0,91,0.00,,,0.00,Wunderground v.1.15,2013-05-28 11:50:00,
2013-05-28 06:59:00,73.9,71.1,29.86,West,281,1.0,1.0,91,0.00,,,0.00,Wunderground v.1.15,2013-05-28 11:59:00,
2013-05-28 07:05:00,73.9,71.1,29.86,SSE,165,1.0,1.0,91,0.00,,,0.00,Wunderground v.1.15,2013-05-28 12:05:00,
2013-05-28 07:15:00,74.0,71.2,29.85,ESE,102,1.0,1.0,91,0.00,,,0.00,Wunderground v.1.15,2013-05-28 12:15:00,
2013-05-28 07:25:00,74.0,71.5,29.85,ENE,61,1.0,1.0,92,0.00,,,0.00,Wunderground v.1.15,2013-05-28 12:25:00,
2013-05-28 07:35:00,74.2,71.7,29.85,North,354,1.0,1.0,92,0.00,,,0.00,Wunderground v.1.15,2013-05-28 12:35:00,
2013-05-28 07:40:00,74.3,71.8,29.85,SSW,200,1.0,1.0,92,0.00,,,0.00,Wunderground v.1.15,2013-05-28 12:40:00,
2013-05-28 07:50:00,74.6,71.8,29.85,SE,131,1.0,1.0,91,0.00,,,0.00,Wunderground v.1.15,2013-05-28 12:50:00,
2013-05-28 08:00:00,74.8,72.0,29.86,ENE,58,1.0,1.0,91,0.00,,,0.00,Wunderground v.1.15,2013-05-28 13:00:00,
2013-05-28 08:10:00,75.0,71.9,29.86,ESE,120,1.0,1.0,90,0.00,,,0.00,Wunderground v.1.15,2013-05-28 13:10:00,
2013-05-28 08:20:00,75.2,72.1,29.87,WSW,241,1.0,2.0,90,0.00,,,0.00,Wunderground v.1.15,2013-05-28 13:20:00,
2013-05-28 08:29:00,75.5,72.0,29.87,ESE,105,1.0,1.0,89,0.00,,,0.00,Wunderground v.1.15,2013-05-28 13:29:00,
2013-05-28 08:35:00,75.8,72.3,29.87,East,89,1.0,1.0,89,0.00,,,0.00,Wunderground v.1.15,2013-05-28 13:35:00,
2013-05-28 08:45:00,76.2,72.7,29.87,ENE,64,1.0,1.0,89,0.00,,,0.00,Wunderground v.1.15,2013-05-28 13:45:00,
2013-05-28 08:55:00,76.5,72.7,29.87,SE,139,1.0,3.0,88,0.00,,,0.00,Wunderground v.1.15,2013-05-28 13:55:00,
2013-05-28 09:05:00,77.0,72.5,29.87,SW,229,2.0,2.0,86,0.00,,,0.00,Wunderground v.1.15,2013-05-28 14:05:00,
2013-05-28 09:15:00,77.5,72.6,29.87,NW,311,1.0,2.0,85,0.00,,,0.00,Wunderground v.1.15,2013-05-28 14:15:00,
2013-05-28 09:24:00,77.8,72.9,29.86,SE,130,1.0,1.0,85,0.00,,,0.00,Wunderground v.1.15,2013-05-28 14:24:00,
2013-05-28 09:30:00,78.0,72.8,29.86,WNW,302,1.0,1.0,84,0.00,,,0.00,Wunderground v.1.15,2013-05-28 14:30:00,
2013-05-28 09:40:00,78.4,73.2,29.86,SSE,160,1.0,1.0,84,0.00,,,0.00,Wunderground v.1.15,2013-05-28 14:40:00,
2013-05-28 09:50:00,78.6,72.6,29.86,ESE,120,2.0,2.0,82,0.00,,,0.00,Wunderground v.1.15,2013-05-28 14:50:00,
2013-05-28 10:00:00,78.9,72.9,29.86,NW,319,1.0,1.0,82,0.00,,,0.00,Wunderground v.1.15,2013-05-28 15:00:00,
2013-05-28 10:05:00,79.5,73.5,29.86,West,259,1.0,2.0,82,0.00,,,0.00,Wunderground v.1.15,2013-05-28 15:05:00,
2013-05-28 10:14:00,79.9,73.5,29.86,West,260,1.0,1.0,81,0.00,,,0.00,Wunderground v.1.15,2013-05-28 15:14:00,
2013-05-28 10:20:00,79.8,73.1,29.86,SE,124,2.0,2.0,80,0.00,,,0.00,Wunderground v.1.15,2013-05-28 15:20:00,
2013-05-28 10:30:00,80.9,73.4,29.86,South,188,2.0,5.0,78,0.00,,,0.00,Wunderground v.1.15,2013-05-28 15:30:00,
2013-05-28 10:40:00,81.9,73.6,29.86,SE,127,2.0,2.0,76,0.00,,,0.00,Wunderground v.1.15,2013-05-28 15:40:00,
2013-05-28 10:50:00,81.5,73.2,29.86,ESE,121,2.0,2.0,76,0.00,,,0.00,Wunderground v.1.15,2013-05-28 15:50:00,
2013-05-28 11:00:00,81.6,73.3,29.86,ENE,73,2.0,2.0,76,0.00,,,0.00,Wunderground v.1.15,2013-05-28 16:00:00,
2013-05-28 11:09:00,81.4,72.7,29.86,SSE,155,2.0,2.0,75,0.00,,,0.00,Wunderground v.1.15,2013-05-28 16:09:00,
2013-05-28 11:15:00,81.5,72.8,29.86,NE,46,2.0,2.0,75,0.00,,,0.00,Wunderground v.1.15,2013-05-28 16:15:00,
2013-05-28 11:25:00,82.2,73.1,29.86,SSW,207,2.0,5.0,74,0.00,,,0.00,Wunderground v.1.15,2013-05-28 16:25:00,
2013-05-28 11:35:00,82.3,72.8,29.86,West,261,2.0,2.0,73,0.00,,,0.00,Wunderground v.1.15,2013-05-28 16:35:00,
2013-05-28 11:45:00,82.1,73.4,29.86,ESE,103,2.0,4.0,75,0.00,,,0.00,Wunderground v.1.15,2013-05-28 16:45:00,
2013-05-28 11:55:00,82.5,73.8,29.86,SW,229,2.0,2.0,75,0.00,,,0.00,Wunderground v.1.15,2013-05-28 16:55:00,
2013-05-28 12:04:00,82.8,74.1,29.86,NW,310,2.0,2.0,75,0.00,,,0.00,Wunderground v.1.15,2013-05-28 17:04:00,
2013-05-28 12:10:00,83.5,73.9,29.86,South,170,2.0,2.0,73,0.00,,,0.00,Wunderground v.1.15,2013-05-28 17:10:00,
2013-05-28 12:20:00,83.0,73.4,29.86,SE,136,1.0,2.0,73,0.00,,,0.00,Wunderground v.1.15,2013-05-28 17:20:00,
2013-05-28 12:29:00,83.6,74.0,29.85,South,174,2.0,2.0,73,0.00,,,0.00,Wunderground v.1.15,2013-05-28 17:29:00,
2013-05-28 12:35:00,84.5,75.3,29.85,WNW,298,2.0,2.0,74,0.00,,,0.00,Wunderground v.1.15,2013-05-28 17:35:00,
2013-05-28 12:44:00,85.2,75.1,29.85,ESE,113,2.0,2.0,72,0.00,,,0.00,Wunderground v.1.15,2013-05-28 17:44:00,
2013-05-28 12:50:00,85.9,75.0,29.85,SE,132,2.0,2.0,70,0.00,,,0.00,Wunderground v.1.15,2013-05-28 17:50:00,
2013-05-28 13:00:00,86.3,74.9,29.84,ESE,105,2.0,2.0,69,0.00,,,0.00,Wunderground v.1.15,2013-05-28 18:00:00,
2013-05-28 13:10:00,86.2,75.3,29.84,ESE,105,2.0,2.0,70,0.00,,,0.00,Wunderground v.1.15,2013-05-28 18:10:00,
2013-05-28 13:20:00,87.0,74.3,29.83,WSW,255,2.0,2.0,66,0.00,,,0.00,Wunderground v.1.15,2013-05-28 18:20:00,
2013-05-28 13:30:00,87.9,74.7,29.83,SE,135,2.0,3.0,65,0.00,,,0.00,Wunderground v.1.15,2013-05-28 18:30:00,
2013-05-28 13:39:00,87.1,74.4,29.82,NNW,328,3.0,3.0,66,0.00,,,0.00,Wunderground v.1.15,2013-05-28 18:39:00,
2013-05-28 13:45:00,86.7,74.4,29.82,East,96,2.0,3.0,67,0.00,,,0.00,Wunderground v.1.15,2013-05-28 18:45:00,
2013-05-28 13:54:00,87.3,74.5,29.81,ESE,123,2.0,3.0,66,0.00,,,0.00,Wunderground v.1.15,2013-05-28 18:54:00,
2013-05-28 14:05:00,88.4,74.2,29.81,SE,133,2.0,3.0,63,0.00,,,0.00,Wunderground v.1.15,2013-05-28 19:05:00,
2013-05-28 14:14:00,88.1,73.9,29.81,South,183,2.0,3.0,63,0.00,,,0.00,Wunderground v.1.15,2013-05-28 19:14:00,
2013-05-28 14:20:00,88.6,74.4,29.80,East,90,2.0,3.0,63,0.00,,,0.00,Wunderground v.1.15,2013-05-28 19:20:00,
2013-05-28 14:29:00,89.0,73.8,29.80,WSW,245,2.0,2.0,61,0.00,,,0.00,Wunderground v.1.15,2013-05-28 19:29:00,
2013-05-28 14:35:00,88.9,74.2,29.80,SSE,167,2.0,2.0,62,0.00,,,0.00,Wunderground v.1.15,2013-05-28 19:35:00,
2013-05-28 14:45:00,88.2,73.5,29.80,East,101,2.0,2.0,62,0.00,,,0.00,Wunderground v.1.15,2013-05-28 19:45:00,
2013-05-28 14:55:00,89.0,73.8,29.80,ESE,115,2.0,2.0,61,0.00,,,0.00,Wunderground v.1.15,2013-05-28 19:55:00,
2013-05-28 15:05:00,89.5,75.2,29.79,WNW,293,2.0,2.0,63,0.00,,,0.00,Wunderground v.1.15,2013-05-28 20:05:00,
2013-05-28 15:14:00,89.8,74.6,29.80,South,177,2.0,2.0,61,0.00,,,0.00,Wunderground v.1.15,2013-05-28 20:14:00,
2013-05-28 15:20:00,89.3,74.6,29.80,SE,134,2.0,2.0,62,0.00,,,0.00,Wunderground v.1.15,2013-05-28 20:20:00,
2013-05-28 15:29:00,88.4,74.2,29.79,ESE,107,2.0,2.0,63,0.00,,,0.00,Wunderground v.1.15,2013-05-28 20:29:00,
2013-05-28 15:35:00,88.2,73.5,29.79,SE,133,2.0,2.0,62,0.00,,,0.00,Wunderground v.1.15,2013-05-28 20:35:00,
2013-05-28 15:45:00,88.5,74.3,29.79,East,101,2.0,5.0,63,0.00,,,0.00,Wunderground v.1.15,2013-05-28 20:45:00,
2013-05-28 15:55:00,87.9,73.7,29.79,ESE,105,3.0,3.0,63,0.00,,,0.00,Wunderground v.1.15,2013-05-28 20:55:00,
2013-05-28 16:05:00,89.1,74.9,29.78,ESE,104,2.0,4.0,63,0.00,,,0.00,Wunderground v.1.15,2013-05-28 21:05:00,
2013-05-28 16:10:00,89.0,75.2,29.78,East,88,2.0,2.0,64,0.00,,,0.00,Wunderground v.1.15,2013-05-28 21:10:00,
2013-05-28 16:20:00,89.5,75.2,29.78,ESE,105,2.0,2.0,63,0.00,,,0.00,Wunderground v.1.15,2013-05-28 21:20:00,
2013-05-28 16:30:00,88.0,73.8,29.77,SSE,148,3.0,3.0,63,0.00,,,0.00,Wunderground v.1.15,2013-05-28 21:30:00,
2013-05-28 16:40:00,89.5,75.2,29.77,WNW,302,1.0,1.0,63,0.00,,,0.00,Wunderground v.1.15,2013-05-28 21:40:00,
2013-05-28 16:49:00,89.2,74.5,29.77,South,170,2.0,2.0,62,0.00,,,0.00,Wunderground v.1.15,2013-05-28 21:49:00,
2013-05-28 16:55:00,88.7,74.0,29.77,East,82,2.0,2.0,62,0.00,,,0.00,Wunderground v.1.15,2013-05-28 21:55:00,
2013-05-28 17:04:00,89.5,75.7,29.77,East,98,2.0,2.0,64,0.00,,,0.00,Wunderground v.1.15,2013-05-28 22:04:00,
2013-05-28 17:10:00,89.1,74.4,29.77,East,96,2.0,2.0,62,0.00,,,0.00,Wunderground v.1.15,2013-05-28 22:10:00,
2013-05-28 17:20:00,89.1,74.4,29.76,East,85,2.0,2.0,62,0.00,,,0.00,Wunderground v.1.15,2013-05-28 22:20:00,
2013-05-28 17:30:00,88.6,73.9,29.76,East,101,3.0,3.0,62,0.00,,,0.00,Wunderground v.1.15,2013-05-28 22:30:00,
2013-05-28 17:40:00,88.2,74.5,29.76,SW,225,2.0,2.0,64,0.00,,,0.00,Wunderground v.1.15,2013-05-28 22:40:00,
2013-05-28 17:50:00,87.4,73.7,29.76,East,91,2.0,3.0,64,0.00,,,0.00,Wunderground v.1.15,2013-05-28 22:50:00,
2013-05-28 17:59:00,86.9,74.2,29.76,SSE,162,3.0,3.0,66,0.00,,,0.00,Wunderground v.1.15,2013-05-28 22:59:00,
2013-05-28 18:05:00,87.2,74.5,29.76,ESE,110,3.0,3.0,66,0.00,,,0.00,Wunderground v.1.15,2013-05-28 23:05:00,
2013-05-28 18:15:00,87.0,73.8,29.75,SSW,200,3.0,4.0,65,0.00,,,0.00,Wunderground v.1.15,2013-05-28 23:15:00,
2013-05-28 18:25:00,86.8,74.1,29.75,SE,145,3.0,3.0,66,0.00,,,0.00,Wunderground v.1.15,2013-05-28 23:25:00,
2013-05-28 18:35:00,86.1,74.3,29.75,ENE,70,3.0,3.0,68,0.00,,,0.00,Wunderground v.1.15,2013-05-28 23:35:00,
2013-05-28 18:40:00,85.3,73.5,29.75,ENE,70,3.0,3.0,68,0.00,,,0.00,Wunderground v.1.15,2013-05-28 23:40:00,
2013-05-28 18:50:00,84.2,72.9,29.75,ESE,123,3.0,4.0,69,0.00,,,0.00,Wunderground v.1.15,2013-05-28 23:50:00,
2013-05-28 19:00:00,83.9,73.5,29.75,ENE,58,2.0,3.0,71,0.00,,,0.00,Wunderground v.1.15,2013-05-29 00:00:00,
2013-05-28 19:10:00,83.5,73.1,29.75,South,177,3.0,3.0,71,0.00,,,0.00,Wunderground v.1.15,2013-05-29 00:10:00,
2013-05-28 19:20:00,83.0,73.0,29.75,ESE,113,2.0,2.0,72,0.00,,,0.00,Wunderground v.1.15,2013-05-29 00:20:00,
2013-05-28 19:30:00,82.5,73.4,29.75,ESE,120,3.0,3.0,74,0.00,,,0.00,Wunderground v.1.15,2013-05-29 00:30:00,
2013-05-28 19:39:00,81.9,72.8,29.75,ESE,121,2.0,2.0,74,0.00,,,0.00,Wunderground v.1.15,2013-05-29 00:39:00,
2013-05-28 19:45:00,81.7,73.0,29.76,ESE,120,2.0,2.0,75,0.00,,,0.00,Wunderground v.1.15,2013-05-29 00:45:00,
2013-05-28 19:55:00,81.3,72.6,29.76,SE,131,2.0,2.0,75,0.00,,,0.00,Wunderground v.1.15,2013-05-29 00:55:00,
2013-05-28 20:05:00,80.8,72.5,29.77,ESE,120,3.0,3.0,76,0.00,,,0.00,Wunderground v.1.15,2013-05-29 01:05:00,
2013-05-28 20:14:00,80.3,72.4,29.77,East,84,2.0,4.0,77,0.00,,,0.00,Wunderground v.1.15,2013-05-29 01:14:00,
2013-05-28 20:20:00,80.0,72.1,29.77,SSW,198,2.0,3.0,77,0.00,,,0.00,Wunderground v.1.15,2013-05-29 01:20:00,
2013-05-28 20:29:00,79.7,71.8,29.77,East,85,2.0,2.0,77,0.00,,,0.00,Wunderground v.1.15,2013-05-29 01:29:00,
2013-05-28 20:35:00,79.5,72.0,29.78,East,94,2.0,5.0,78,0.00,,,0.00,Wunderground v.1.15,2013-05-29 01:35:00,
2013-05-28 20:45:00,79.3,71.8,29.79,SE,132,2.0,2.0,78,0.00,,,0.00,Wunderground v.1.15,2013-05-29 01:45:00,
2013-05-28 20:55:00,79.2,72.1,29.80,ESE,115,1.0,2.0,79,0.00,,,0.00,Wunderground v.1.15,2013-05-29 01:55:00,
2013-05-28 21:05:00,79.1,72.4,29.80,SE,136,1.0,1.0,80,0.00,,,0.00,Wunderground v.1.15,2013-05-29 02:05:00,
2013-05-28 21:15:00,78.9,72.6,29.80,SSE,148,1.0,1.0,81,0.00,,,0.00,Wunderground v.1.15,2013-05-29 02:15:00,
2013-05-28 21:24:00,78.7,72.4,29.80,East,97,2.0,4.0,81,0.00,,,0.00,Wunderground v.1.15,2013-05-29 02:24:00,
2013-05-28 21:30:00,78.6,72.3,29.80,SE,127,2.0,2.0,81,0.00,,,0.00,Wunderground v.1.15,2013-05-29 02:30:00,
2013-05-28 21:40:00,78.5,72.2,29.81,ESE,108,2.0,2.0,81,0.00,,,0.00,Wunderground v.1.15,2013-05-29 02:40:00,
2013-05-28 21:49:00,78.2,71.9,29.81,SSE,152,2.0,2.0,81,0.00,,,0.00,Wunderground v.1.15,2013-05-29 02:49:00,
2013-05-28 21:55:00,78.1,71.8,29.80,SSE,148,2.0,2.0,81,0.00,,,0.00,Wunderground v.1.15,2013-05-29 02:55:00,
2013-05-28 22:04:00,77.7,71.8,29.81,ESE,121,1.0,2.0,82,0.00,,,0.00,Wunderground v.1.15,2013-05-29 03:04:00,
2013-05-28 22:10:00,77.5,71.9,29.81,SE,142,1.0,2.0,83,0.00,,,0.00,Wunderground v.1.15,2013-05-29 03:10:00,
2013-05-28 22:20:00,77.4,71.8,29.81,SSE,160,2.0,2.0,83,0.00,,,0.00,Wunderground v.1.15,2013-05-29 03:20:00,
2013-05-28 22:30:00,77.3,72.1,29.82,East,98,1.0,1.0,84,0.00,,,0.00,Wunderground v.1.15,2013-05-29 03:30:00,
2013-05-28 22:40:00,77.2,72.0,29.82,ESE,122,1.0,2.0,84,0.00,,,0.00,Wunderground v.1.15,2013-05-29 03:40:00,
2013-05-28 22:50:00,77.1,72.2,29.83,ESE,108,2.0,2.0,85,0.00,,,0.00,Wunderground v.1.15,2013-05-29 03:50:00,
2013-05-28 22:59:00,77.0,72.1,29.83,SE,131,1.0,2.0,85,0.00,,,0.00,Wunderground v.1.15,2013-05-29 03:59:00,
2013-05-28 23:05:00,76.9,72.4,29.83,East,87,1.0,2.0,86,0.00,,,0.00,Wunderground v.1.15,2013-05-29 04:05:00,
2013-05-28 23:10:00,76.9,72.4,29.83,SE,136,1.0,1.0,86,0.00,,,0.00,Wunderground v.1.15,2013-05-29 04:10:00,
2013-05-28 23:15:00,76.8,72.3,29.84,South,172,1.0,1.0,86,0.00,,,0.00,Wunderground v.1.15,2013-05-29 04:15:00,
2013-05-28 23:19:00,76.8,72.3,29.84,SE,139,2.0,2.0,86,0.00,,,0.00,Wunderground v.1.15,2013-05-29 04:19:00,
2013-05-28 23:25:00,76.8,72.3,29.85,ENE,74,1.0,2.0,86,0.00,,,0.00,Wunderground v.1.15,2013-05-29 04:25:00,
2013-05-28 23:35:00,76.8,71.9,29.85,SSE,155,1.0,1.0,85,0.00,,,0.00,Wunderground v.1.15,2013-05-29 04:35:00,
2013-05-28 23:45:00,76.8,71.9,29.85,NE,53,1.0,1.0,85,0.00,,,0.00,Wunderground v.1.15,2013-05-29 04:45:00,
2013-05-28 23:55:00,76.8,71.9,29.86,SSE,148,1.0,1.0,85,0.00,,,0.00,Wunderground v.1.15,2013-05-29 04:55:00,